Regional Weather Roundup
Issued by NWS

Home | Current Version | Previous Version | Text Only | Print | Product List | Glossary Off
Versions: 1 2 3 4 5 6 7 8 9 10 11 12 13 14 15 16 17 18 19 20 21 22 23 24 25 26 27 28 29 30 31 32 33 34 35 36 37 38 39 40 41 42 43 44 45 46 47 48 49 50

000
ASUS43 KBIS 220710
RWRND

NORTH DAKOTA REGIONAL WEATHER ROUNDUP
NATIONAL WEATHER SERVICE BISMARCK ND
200 AM CDT TUE JUL 22 2014

NOTE: "FAIR" INDICATES FEW OR NO CLOUDS BELOW 12,000 FEET WITH NO
SIGNIFICANT WEATHER AND/OR OBSTRUCTIONS TO VISIBILITY.


NDZ001>003-009>011-017-220800-
NORTHWEST NORTH DAKOTA

CITY           SKY/WX    TMP DP  RH WIND       PRES   REMARKS
WILLISTON      PTCLDY    58  56  93 CALM      30.05R
MINOT          MOCLDY    62  60  93 W7        30.01R
MINOT AFB      PTCLDY    61  61 100 NW8       30.00R
$$

NDZ018>021-031>035-040>046-220800-
SOUTHWEST NORTH DAKOTA

CITY           SKY/WX    TMP DP  RH WIND       PRES   REMARKS
BISMARCK       CLEAR     64  62  93 NW6       30.00R
DICKINSON      CLEAR     58  57  97 CALM      30.07R FOG
GARRISON         N/A     60  60 100 NW6       30.03R
HETTINGER ARPT CLOUDY    60  59  96 S5        30.12S FOG
$$

NDZ004>008-012>016-024-026-027-054-220800-
NORTHEAST NORTH DAKOTA

CITY           SKY/WX    TMP DP  RH WIND       PRES   REMARKS
GRAND FORKS    CLOUDY    66  64  94 NW14      29.84R
GRND FRKS AFB  CLOUDY    64  64 100 NW14      29.87R
DEVILS LAKE    CLOUDY    64  57  77 NW10      29.92S
$$

NDZ022-023-025-028>030-036>039-047>053-220800-
SOUTHEAST NORTH DAKOTA

CITY           SKY/WX    TMP DP  RH WIND       PRES   REMARKS
FARGO          MOCLDY    68  64  87 N12       29.83R
JAMESTOWN      CLOUDY    67  64  90 NW13      29.93R
$$




USA.gov is the U.S. government's official web portal to all federal, state and local government web resources and services.